This demonstration page uses our WeatherBlox Daily Observations layout. Learn more.

Left ArrowRight Arrow

31.31129, -92.44514

Hourly Observations for August 14, 2022

Temp ( °F °C ) Dew Point ( °F °C ) Humidity (%) Winds ( mph kmh ) Pressure ( in mb ) Visibility ( mi km ) Precip ( " mm )
12:53 am 00:53 Clear 77 25 73 22.8 88 88 Calm 29.97 1015 10 16 0.00 0.00
1:53 am 01:53 Clear 76 24.4 73 22.8 91 91 S 3 6 29.97 1015 10 16 0.00 0.00
2:53 am 02:53 Clear 76 24.4 73 22.8 91 91 SE 6 9 29.97 1015 10 16 0.00 0.00
3:53 am 03:53 Clear 76 24.4 73 22.8 91 91 SSE 5 7 29.97 1015 10 16 0.00 0.00
4:53 am 04:53 Clear 75 23.9 73 22.8 94 94 S 3 6 29.97 1015 8 13 0.00 0.00
5:36 am 05:36 Partly Cloudy 75 23.9 73 22.8 94 94 Calm 29.97 1015 7 11 0.00 0.00
5:45 am 05:45 Mostly Cloudy 75 23.9 73 22.8 94 94 Calm 29.97 1015 7 11 0.00 0.00
5:53 am 05:53 Mostly Cloudy 75 23.9 73 22.8 94 94 SSE 5 7 29.98 1015 7 11 0.00 0.00
6:08 am 06:08 Partly Cloudy 75 23.9 73 22.8 94 94 SSE 3 6 29.97 1015 7 11 0.00 0.00
6:53 am 06:53 Partly Cloudy with Mist and Fog 75 23.9 72 22.2 90 90 SE 3 6 29.99 1016 6 10 0.00 0.00
7:53 am 07:53 Partly Cloudy 77 25 74 23.3 90 90 SSE 5 7 30.00 1016 9 14 0.00 0.00
8:53 am 08:53 Sunny 81 27.2 75 23.9 82 82 S 5 7 30.01 1016 10 16 0.00 0.00
9:53 am 09:53 Mostly Sunny 85 29.4 76 24.4 75 75 SSW 5 7 30.01 1016 10 16 0.00 0.00
10:06 am 10:06 Mostly Cloudy 86 30 75 23.9 70 70 WSW 7 11 30.00 1016 10 16 0.00 0.00
10:13 am 10:13 Partly Cloudy 84 28.9 74 23.3 72 72 WSW 6 9 30.00 1016 10 16 0.00 0.00
10:53 am 10:53 Mostly Sunny 87 30.6 74 23.3 65 65 SW 6 9 30.02 1017 10 16 0.00 0.00
11:53 am 11:53 Sunny 90 32.2 72 22.2 56 56 W 6 9 30.02 1017 10 16 0.00 0.00
12:53 pm 12:53 Sunny 92 33.3 73 22.8 54 54 Calm 30.01 1016 10 16 0.00 0.00
1:53 pm 13:53 Sunny 93 33.9 73 22.8 52 52 SE 5 7 29.98 1015 10 16 0.00 0.00
2:53 pm 14:53 Mostly Cloudy 94 34.4 72 22.2 49 49 VRB 5 7 29.96 1015 10 16 0.00 0.00
3:53 pm 15:53 Cloudy 94 34.4 72 22.2 49 49 VRB 6 9 29.94 1014 10 16 0.00 0.00
4:53 pm 16:53 Mostly Cloudy 96 35.6 73 22.8 48 48 SE 13 20 29.93 1013 10 16 0.00 0.00
5:53 pm 17:53 Sunny 94 34.4 72 22.2 49 49 SSE 10 17 29.92 1013 10 16 0.00 0.00
6:53 pm 18:53 Partly Cloudy 92 33.3 72 22.2 52 52 SSW 8 13 29.91 1013 10 16 0.00 0.00
7:53 pm 19:53 Sunny 88 31.1 73 22.8 61 61 S 5 7 29.91 1013 10 16 0.00 0.00
8:53 pm 20:53 Clear 85 29.4 74 23.3 70 70 S 3 6 29.92 1013 10 16 0.00 0.00
9:53 pm 21:53 Clear 82 27.8 75 23.9 79 79 SSE 5 7 29.93 1014 10 16 0.00 0.00
10:53 pm 22:53 Clear 81 27.2 74 23.3 79 79 SSE 5 7 29.94 1014 10 16 0.00 0.00
11:53 pm 23:53 Clear 80 26.7 74 23.3 82 82 SSE 3 6 29.94 1014 10 16 0.00 0.00

Powered by AerisWeather